Wisconsin Rapids, WI

7:45 AM CDT on June 25, 2017 (GMT -0500)
Alexander Field South Wood County

Weather History for KISW - August, 2013

Change the Weather History Date:

Saturday, August 17, 2013

  Actual Average Record
Temperature  
Mean Temperature 66 °F -  
Max Temperature 84 °F 80 °F 103 °F (1988)
Min Temperature 51 °F 55 °F 39 °F (1992)
Cooling Degree Days 2    
Growing Degree Days 16 (Base 50)    
Moisture  
Dew Point 52 °F    
Average Humidity 73    
Maximum Humidity 100    
Minimum Humidity 30    
Precipitation  
Precipitation 0.00 in - - ()
Sea Level Pressure  
Sea Level Pressure 30.22 in    
Wind  
Wind Speed 1 mph (SW)    
Max Wind Speed 8 mph    
Max Gust Speed -    
Visibility 7 miles    
Events Fog    
Averages and records for this station are not official NWS values.
T = Trace of Precipitation, MM = Missing Value Source: NWS Daily Summary

Daily Weather History Graph

Daily Weather History Graph

Search for Another Location

Airport or City:

Trip Planner

Search our weather history database for the weather conditions in past years. The results will help you decide how hot, cold, wet, or windy it might be!

Date:

Astronomy

Aug. 17, 2013 Rise Set
Actual Time 6:05 AM CDT 8:00 PM CDT
Civil Twilight 5:33 AM CDT 8:31 PM CDT
Nautical Twilight 4:55 AM CDT 9:10 PM CDT
Astronomical Twilight 4:13 AM CDT 9:51 PM CDT
Moon 5:20 PM CDT (8/17) 2:03 AM CDT (8/17)
Length of Visible Light 14h 58m
Length of Day
13h 55m
Waxing Gibbous, 84% of the Moon is Illuminated
Aug 17
Waxing Gibbous
Aug 20
Full
Aug 28
Last Quarter
Sep 5
New
Sep 12
First Quarter

Hourly Weather History & Observations

Time (CDT) Temp. Dew Point Humidity Pressure Visibility Wind Dir Wind Speed Gust Speed Precip Events Conditions
12:54 AM 57.0 °F 54.0 °F 89% 30.21 in 10.0 mi Calm Calm - N/A   Clear
1:54 AM 55.9 °F 54.0 °F 93% 30.22 in 10.0 mi Calm Calm - N/A   Clear
2:54 AM 54.0 °F 53.1 °F 97% 30.22 in 10.0 mi Calm Calm - N/A   Clear
3:54 AM 53.1 °F 52.0 °F 96% 30.23 in 9.0 mi Calm Calm - N/A   Clear
4:54 AM 52.0 °F 51.1 °F 97% 30.24 in 5.0 mi Calm Calm - N/A   Clear
5:10 AM 51.8 °F 50.0 °F 94% 30.24 in 1.5 mi Calm Calm - N/A   Clear
5:28 AM 51.8 °F 50.0 °F 94% 30.25 in 3.0 mi Calm Calm - N/A   Clear
5:41 AM 51.8 °F 51.8 °F 100% 30.25 in 1.0 mi Calm Calm - N/A   Clear
5:52 AM 51.8 °F 51.8 °F 100% 30.25 in 2.0 mi Calm Calm - N/A   Clear
5:54 AM 52.0 °F 51.1 °F 97% 30.25 in 2.5 mi Calm Calm - N/A   Clear
6:03 AM 51.8 °F 50.0 °F 94% 30.25 in 3.0 mi Calm Calm - N/A   Clear
6:12 AM 51.8 °F 50.0 °F 94% 30.25 in 1.0 mi Calm Calm - N/A   Clear
6:22 AM 51.8 °F 50.0 °F 94% 30.25 in 4.0 mi Calm Calm - N/A   Clear
6:34 AM 51.8 °F 51.8 °F 100% 30.25 in 1.0 mi Calm Calm - N/A   Clear
6:41 AM 51.8 °F 51.8 °F 100% 30.25 in 0.5 mi Calm Calm - N/A Fog Fog
6:46 AM 51.8 °F 51.8 °F 100% 30.26 in 2.0 mi Calm Calm - N/A   Clear
6:54 AM 53.1 °F 52.0 °F 96% 30.25 in 8.0 mi Calm Calm - N/A   Clear
7:54 AM 62.1 °F 57.9 °F 86% 30.26 in 9.0 mi Calm Calm - N/A   Clear
8:54 AM 70.0 °F 57.0 °F 63% 30.26 in 10.0 mi Calm Calm - N/A   Clear
9:54 AM 75.0 °F 55.9 °F 51% 30.26 in 10.0 mi Calm Calm - N/A   Clear
10:54 AM 78.1 °F 54.0 °F 43% 30.25 in 10.0 mi Variable 3.5 mph - N/A   Clear
11:54 AM 80.1 °F 52.0 °F 38% 30.24 in 10.0 mi South 6.9 mph - N/A   Clear
12:54 PM 82.0 °F 50.0 °F 33% 30.23 in 10.0 mi WNW 4.6 mph - N/A   Partly Cloudy
1:54 PM 80.1 °F 52.0 °F 38% 30.22 in 10.0 mi WSW 5.8 mph - N/A   Clear
2:54 PM 80.1 °F 50.0 °F 35% 30.20 in 10.0 mi SW 6.9 mph - N/A   Overcast
3:54 PM 82.0 °F 48.0 °F 30% 30.19 in 10.0 mi Variable 4.6 mph - N/A   Partly Cloudy
4:54 PM 82.0 °F 50.0 °F 33% 30.18 in 10.0 mi West 5.8 mph - N/A   Mostly Cloudy
5:54 PM 82.0 °F 50.0 °F 33% 30.18 in 10.0 mi SSW 8.1 mph - N/A   Scattered Clouds
6:54 PM 80.1 °F 51.1 °F 36% 30.16 in 10.0 mi WSW 3.5 mph - N/A   Clear
7:54 PM 73.0 °F 55.9 °F 55% 30.17 in 10.0 mi Calm Calm - N/A   Clear
8:54 PM 71.1 °F 54.0 °F 55% 30.17 in 10.0 mi SSE 4.6 mph - N/A   Scattered Clouds
9:54 PM 64.9 °F 54.0 °F 68% 30.18 in 10.0 mi Calm Calm - N/A   Clear
10:54 PM 63.0 °F 55.0 °F 75% 30.18 in 10.0 mi South 4.6 mph - N/A   Clear
11:54 PM 63.0 °F 55.0 °F 75% 30.18 in 10.0 mi Calm Calm - N/A   Clear